Date String (YYYY-MM-DD hh:mm:ss) UTC,Instrument flags,Ambient pressure (hPa),Sample flow (lpm),Bypass flow (lpm),Sample temperature (°C),Ambient temperature (°C),ASC tube jacket temperature (°C),LED temperature (°C),Box temperature (°C),Sample RH (%),Span deviation,Mass concentration (μg/m³),Mass concentration (μg/m³),Mass concentration (μg/m³)
DateTimeUTC,F1_M11,P_M11,Q1_M11,Q2_M11,T1_M11,T2_M11,T3_M11,T4_M11,T5_M11,U1_M11,ZSPAN_M11,X0_M11,X2_M11,X1_M11
2021-12-17 12:00:00,,0820.0,4.99,0.00,22.2,21.5,00.0,31.3,23.8,09.9,0000.0,0001.28,0000.65,0000.44
2021-12-17 12:01:00,,0820.0,4.99,0.00,22.2,21.4,00.0,31.3,23.8,09.9,0000.0,0001.33,0000.67,0000.45
2021-12-17 12:02:00,,0820.0,5.01,0.00,22.2,21.4,00.0,31.3,23.8,10.0,0000.0,0001.35,0000.68,0000.45
2021-12-17 12:03:00,,0819.9,5.00,0.00,22.2,21.3,00.0,31.3,23.8,10.1,0000.0,0001.42,0000.71,0000.44
2021-12-17 12:04:00,,0819.9,4.99,0.00,22.1,21.3,00.0,31.3,23.7,10.0,0000.0,0001.47,0000.73,0000.44
2021-12-17 12:05:00,,0819.9,4.99,0.00,22.1,21.2,00.0,31.2,23.6,10.0,0000.0,0001.44,0000.73,0000.44
2021-12-17 12:06:00,,0819.9,5.00,0.00,22.1,21.7,00.0,31.2,23.8,10.0,0000.0,0001.37,0000.70,0000.44
2021-12-17 12:07:00,,0819.9,5.01,0.00,22.2,22.5,00.0,31.3,24.1,09.9,0000.0,0001.60,0000.74,0000.46
2021-12-17 12:08:00,,0819.9,5.00,0.00,22.4,23.1,00.0,31.3,24.3,09.9,0000.0,0001.99,0000.76,0000.47
2021-12-17 12:09:00,,0820.0,4.99,0.00,22.4,22.9,00.0,31.3,24.4,09.8,0000.0,0002.01,0000.77,0000.48
2021-12-17 12:10:00,,0820.0,5.01,0.00,22.5,22.7,00.0,31.3,24.3,09.8,0000.0,0001.88,0000.75,0000.49
2021-12-17 12:11:00,,0819.9,4.99,0.00,22.5,22.5,00.0,31.3,24.3,09.8,0000.0,0001.76,0000.73,0000.50
2021-12-17 12:12:00,,0819.9,5.01,0.00,22.5,22.4,00.0,31.4,24.2,09.8,0000.0,0001.71,0000.72,0000.51
2021-12-17 12:13:00,,0819.9,5.01,0.00,22.5,22.3,00.0,31.4,24.2,09.8,0000.0,0001.71,0000.72,0000.53
2021-12-17 12:14:00,,0819.9,4.99,0.00,22.4,22.1,00.0,31.4,24.2,09.6,0000.0,0001.65,0000.69,0000.53
2021-12-17 12:15:00,,0820.0,5.01,0.00,22.4,22.0,00.0,31.4,24.1,09.4,0000.0,0001.58,0000.66,0000.53
2021-12-17 12:16:00,,0819.9,4.99,0.00,22.4,22.0,00.0,31.4,24.1,09.1,0000.0,0001.56,0000.64,0000.52
2021-12-17 12:17:00,,0819.9,4.99,0.00,22.4,21.9,00.0,31.4,24.1,09.2,0000.0,0001.45,0000.63,0000.50
2021-12-17 12:18:00,,0819.9,5.00,0.00,22.4,21.8,00.0,31.4,24.1,09.3,0000.0,0001.22,0000.58,0000.48
2021-12-17 12:19:00,,0819.9,5.01,0.00,22.4,21.8,00.0,31.4,24.1,09.2,0000.0,0000.78,0000.55,0000.46
2021-12-17 12:20:00,,0820.0,5.00,0.00,22.4,21.7,00.0,31.4,24.0,09.2,0000.0,0000.75,0000.53,0000.45
2021-12-17 12:21:00,,0820.0,5.00,0.00,22.3,21.7,00.0,31.4,24.0,09.1,0000.0,0000.69,0000.50,0000.43
2021-12-17 12:22:00,,0820.0,5.01,0.00,22.3,21.6,00.0,31.4,24.0,09.0,0000.0,0000.69,0000.49,0000.42
2021-12-17 12:23:00,,0820.0,5.00,0.00,22.3,21.6,00.0,31.3,23.9,09.1,0000.0,0000.73,0000.49,0000.42
2021-12-17 12:24:00,,0820.0,4.99,0.00,22.3,21.5,00.0,31.3,23.9,09.1,0000.0,0000.73,0000.48,0000.41
2021-12-17 12:25:00,,0820.0,5.00,0.00,22.2,21.5,00.0,31.3,23.8,09.1,0000.0,0000.71,0000.47,0000.40
2021-12-17 12:26:00,,0820.0,5.02,0.00,22.2,21.5,00.0,31.3,23.8,09.1,0000.0,0001.88,0000.48,0000.39
2021-12-17 12:27:00,,0820.0,5.00,0.00,22.2,21.4,00.0,31.3,23.8,09.2,0000.0,0003.25,0000.47,0000.39
2021-12-17 12:28:00,,0820.0,5.00,0.00,22.2,21.4,00.0,31.3,23.8,09.2,0000.0,0003.47,0000.47,0000.40
2021-12-17 12:29:00,,0820.0,5.00,0.00,22.1,21.4,00.0,31.3,23.8,09.3,0000.0,0003.46,0000.47,0000.39
2021-12-17 12:30:00,,0820.0,5.00,0.00,22.2,21.5,00.0,31.3,23.8,09.3,0000.0,0003.48,0000.47,0000.40
2021-12-17 12:31:00,,0820.1,4.99,0.00,22.2,22.2,00.0,31.3,24.0,09.2,0000.0,0003.52,0000.49,0000.41
2021-12-17 12:32:00,,0820.1,5.00,0.00,22.4,22.9,00.0,31.3,24.3,09.2,0000.0,0003.53,0000.50,0000.41
2021-12-17 12:33:00,,0820.2,5.00,0.00,22.5,23.1,00.0,31.4,24.5,09.2,0000.0,0003.52,0000.50,0000.41
2021-12-17 12:34:00,,0820.1,5.02,0.00,22.5,22.8,00.0,31.4,24.4,09.2,0000.0,0003.48,0000.48,0000.41
2021-12-17 12:35:00,,0820.2,4.99,0.00,22.5,22.7,00.0,31.4,24.3,09.2,0000.0,0003.44,0000.46,0000.40
2021-12-17 12:36:00,,0820.2,4.99,0.00,22.5,22.5,00.0,31.4,24.3,09.2,0000.0,0003.46,0000.47,0000.39
2021-12-17 12:37:00,,0820.2,5.01,0.00,22.5,22.3,00.0,31.4,24.2,09.2,0000.0,0002.54,0000.48,0000.40
2021-12-17 12:38:00,,0820.2,4.99,0.00,22.5,22.2,00.0,31.4,24.2,09.3,0000.0,0001.10,0000.49,0000.40
2021-12-17 12:39:00,,0820.2,5.01,0.00,22.5,22.1,00.0,31.4,24.2,09.2,0000.0,0000.78,0000.50,0000.39
2021-12-17 12:40:00,,0820.3,5.00,0.00,22.5,22.0,00.0,31.4,24.2,09.2,0000.0,0000.83,0000.52,0000.39
2021-12-17 12:41:00,,0820.3,5.00,0.00,22.5,21.9,00.0,31.4,24.2,09.2,0000.0,0000.85,0000.53,0000.39
2021-12-17 12:42:00,,0820.4,5.01,0.00,22.5,21.9,00.0,31.4,24.2,09.3,0000.0,0000.92,0000.55,0000.41
2021-12-17 12:43:00,,0820.5,4.99,0.00,22.5,21.8,00.0,31.4,24.2,09.3,0000.0,0001.19,0000.64,0000.46
2021-12-17 12:44:00,,0820.5,4.99,0.00,22.5,21.8,00.0,31.4,24.1,09.3,0000.0,0001.58,0000.83,0000.55
2021-12-17 12:45:00,,0820.6,5.01,0.00,22.4,21.8,00.0,31.4,24.1,09.3,0000.0,0002.52,0001.14,0000.70
2021-12-17 12:46:00,,0820.6,5.00,0.00,22.4,21.8,00.0,31.4,24.1,09.4,0000.0,0005.54,0001.49,0000.84
2021-12-17 12:47:00,,0820.6,4.99,0.00,22.4,21.7,00.0,31.4,24.1,09.4,0000.0,0007.71,0001.77,0000.99
2021-12-17 12:48:00,,0820.6,5.00,0.00,22.4,21.7,00.0,31.4,24.1,09.4,0000.0,0009.11,0002.09,0001.16
2021-12-17 12:49:00,,0820.6,5.00,0.00,22.4,21.7,00.0,31.4,24.1,09.4,0000.0,0010.20,0002.35,0001.31
2021-12-17 12:50:00,,0820.6,4.99,0.00,22.4,21.7,00.0,31.4,24.1,09.4,0000.0,0010.95,0002.58,0001.45
2021-12-17 12:51:00,,0820.6,5.01,0.00,22.4,21.6,00.0,31.4,24.1,09.4,0000.0,0011.52,0002.82,0001.61
2021-12-17 12:52:00,,0820.6,4.99,0.00,22.4,21.6,00.0,31.4,24.1,09.4,0000.0,0012.09,0003.07,0001.73
2021-12-17 12:53:00,,0820.7,5.00,0.00,22.4,21.6,00.0,31.4,24.0,09.4,0000.0,0012.28,0003.18,0001.82
2021-12-17 12:54:00,,0820.6,5.00,0.00,22.4,21.6,00.0,31.4,24.0,09.4,0000.0,0012.37,0003.26,0001.93
2021-12-17 12:55:00,,0820.6,5.01,0.00,22.3,21.6,00.0,31.4,24.0,09.5,0000.0,0012.56,0003.29,0001.97
2021-12-17 12:56:00,,0820.6,4.99,0.00,22.3,21.6,00.0,31.3,24.1,09.5,0000.0,0012.40,0003.21,0001.94
2021-12-17 12:57:00,,0820.6,5.01,0.00,22.3,21.6,00.0,31.3,24.0,09.5,0000.0,0011.03,0003.10,0001.90
2021-12-17 12:58:00,,0820.6,5.01,0.00,22.4,22.2,00.0,31.4,24.2,09.4,0000.0,0009.75,0002.98,0001.83
2021-12-17 12:59:00,,0820.7,5.00,0.00,22.5,23.0,00.0,31.4,24.4,09.4,0000.0,0008.51,0002.79,0001.75
